sat.trackr.live / text

‹ back to catalog

STARLINK-31890

NORAD 59785 · 2024-093D

PAYLOAD ACTIVE UNKNOWN

§ Identity

Operator
Country
US
Launch date
2024-05-18
Launch site
AFETR
Launch vehicle
Mass (kg)
RCS (m²)

Purposes: comms

External: N2YO · Heavens-Above · Gunter

§ Orbital elements

Epoch: 2026-09-21T04:27:21.997728Z

Period
94.28 min
Inclination
43.0030°
Eccentricity
0.0001193
Mean motion
15.27412831 rev/d
Perigee alt
482.7 km
Apogee alt
484.4 km
Semi-major
6,861.7 km
B*
1.1373e-3
RAAN
181.4094°
Arg perigee
304.9063°
Mean anomaly
55.1677°
Rev number
13,263

§ Raw data

STARLINK-318901 59785U 24093D   26264.18567127  .00031006  00000+0  11373-2 0  99952 59785  43.0030 181.4094 0001193 304.9063  55.1677 15.27412831132632

JSON: /api/v1/satellites/59785 · /tle

For live sub-satellite position, see the globe view (requires WebGL).

§ Visibility from observer

Set your observer location to see the next 7 days of passes ≥ 10°. The values pass through the URL so the page stays shareable.

No JS? Fill the form by hand. The geolocation button needs JavaScript.